Regional Weather Roundup
Issued by NWS

Home | Current Version | Previous Version | Graphics & Text | Print | Product List | Glossary On
Versions: 1 2 3 4 5 6 7 8 9 10 11 12 13 14 15 16 17 18 19 20 21 22 23 24 25 26 27 28 29 30 31 32 33 34 35 36 37 38 39 40 41 42 43 44 45 46 47 48 49 50
000
ASUS45 KBOI 230210
RWRID
WEATHER ROUNDUP FOR IDAHO
NATIONAL WEATHER SERVICE BOISE ID
800 PM MDT MON SEP 22 2014

NOTE: "FAIR" INDICATES FEW OR NO CLOUDS BELOW 12000 FEET
WITH NO SIGNIFICANT WEATHER AND/OR OBSTRUCTIONS TO VISIBILITY

IDZ012-014-230300-
SOUTHWEST IDAHO


CITY           SKY/WX    TMP DP  RH WIND       PRES   REMARKS
BOISE          PTCLDY    78  49  35 CALM      29.97S
CALDWELL       PTCLDY    75  48  38 NE6       29.97F
MOUNTAIN HOME  PTCLDY    72  51  48 S7        29.99S
$$

IDZ016-017-230300-
SOUTHCENTRAL IDAHO


CITY           SKY/WX    TMP DP  RH WIND       PRES   REMARKS
BURLEY         LGT RAIN  63  50  62 CALM      30.07S
JEROME         LGT RAIN  60  53  77 NE3       30.07S
TWIN FALLS     CLEAR     64  53  67 NE5       30.07R
$$

IDZ019>023-230300-
SOUTHEAST IDAHO


CITY           SKY/WX    TMP DP  RH WIND       PRES   REMARKS
IDAHO FALLS    CLOUDY    66  49  54 SW7       30.11R
POCATELLO      PTCLDY    64  52  64 S7        30.11R
REXBURG        CLOUDY    59  54  83 E7        30.12R
$$

IDZ006-010-011-018-031-032-230300-
CENTRAL IDAHO MOUNTAINS


CITY           SKY/WX    TMP DP  RH WIND       PRES   REMARKS
MCCALL         MOCLDY    66  47  50 NE3       30.07S
HAILEY         PTCLDY    57  55  94 CALM      30.14S
STANLEY          N/A     58  47  66 CALM      30.20R
SALMON         PTCLDY    70  45  40 SE9       30.01R
CHALLIS        MOCLDY    65  53  65 CALM      30.10R
$$

IDZ002-004-006-007-026-230300-
NORTHERN IDAHO


CITY           SKY/WX    TMP DP  RH WIND       PRES   REMARKS
LEWISTON       CLOUDY    75  57  53 SW7       29.86F
LOWELL           N/A     69  58  67 N3        29.89R
COEUR D`ALENE  CLOUDY    73  46  38 SW6       29.90R
MULLAN PASS    CLOUDY    61  42  49 W8        30.12S
$$



USA.gov is the U.S. government's official web portal to all federal, state and local government web resources and services.